1499158800.4,7620,15.94,74120.0,4.65,0.47,0.83,0,*41
1499158801.64,7621,15.94,74116.3,4.63,0.21,0.59,0,*41
1499158802.84,7622,15.94,74114.3,4.65,0.37,0.59,0,*43
1499158804.04,7623,15.94,74112.8,4.65,0.67,0.79,0,*45
1499158805.24,7624,15.94,74110.5,4.65,1.09,1.05,0,*41
1499158806.47,7625,15.94,74116.5,4.63,1.09,1.05,0,*46
1499158807.68,7626,15.94,74118.5,4.65,1.09,0.95,0,*7B
1499158808.87,7627,15.94,74122.0,4.65,1.05,0.95,0,*76
1499158810.11,7628,15.94,74120.8,4.67,1.43,1.25,0,*43
1499158811.33,7629,15.94,74126.3,4.67,1.09,0.97,0,*74
1499158812.59,7630,15.94,74126.0,4.67,1.37,1.25,0,*49
1499158813.81,7631,15.94,74122.3,4.69,1.47,1.29,0,*4D
1499158815.0,7632,15.94,74120.8,4.69,1.41,1.17,0,*45
1499158816.23,7633,15.94,74122.0,4.69,1.37,1.17,0,*45
1499158817.45,7634,15.94,74122.8,4.69,1.17,0.95,0,*7B
1499158818.67,7635,15.94,74124.0,4.69,1.17,1.13,0,*45
1499158819.86,7636,15.94,74120.0,4.69,1.51,1.41,0,*43
1499158821.07,7637,15.94,74122.3,4.69,1.59,1.59,0,*43
1499158822.26,7638,15.94,74122.8,4.73,1.09,0.97,0,*71
1499158823.49,7639,15.94,74120.5,4.73,1.43,1.21,0,*42
1499158824.71,7640,15.94,74122.5,4.73,0.91,0.55,0,*40
1499158825.93,7641,15.94,74122.8,4.73,1.51,1.33,0,*4D
1499158827.15,7642,15.94,74116.8,4.73,0.91,0.59,0,*4E
1499158828.36,7643,15.94,74122.3,4.73,0.71,0.37,0,*49
1499158829.54,7644,15.94,74114.0,4.69,0.21,0.01,0,*75
1499158830.77,7645,15.94,74114.8,4.67,0.29,0.13,0,*41
1499158832.0,7646,15.94,74112.5,4.67,0.59,0.41,0,*42
1499158833.2,7647,15.94,74118.0,4.65,0.37,0.13,0,*4E
1499158834.41,7648,15.94,74112.5,4.63,-0.19,-0.41,0,*4C
1499158835.6,7649,15.94,74110.3,4.63,-0.07,-0.29,0,*7C
1499158836.82,7650,15.94,74106.5,4.63,0.25,-0.07,0,*55
1499158838.03,7651,15.94,74108.5,4.57,-1.29,-1.43,0,*42
1499158839.2,7652,15.94,74108.0,4.57,-0.41,-0.57,0,*4A
1499158840.41,7653,15.94,74096.3,4.53,-1.01,-1.29,0,*42
1499158841.68,7654,15.94,74106.0,4.51,-1.13,-1.39,0,*45
1499158842.88,7655,15.94,74114.3,4.49,-0.93,-1.17,0,*78
1499158844.11,7656,15.94,74112.3,4.47,-0.97,-1.17,0,*71
1499158845.36,7657,15.94,74104.3,4.43,-0.85,-1.09,0,*78
1499158846.52,7658,15.94,74108.0,4.41,-0.29,-0.53,0,*4D
1499158847.7,7659,15.94,74118.0,4.41,-0.03,-0.15,0,*76
1499158848.87,7660,15.94,74116.5,4.41,-0.11,-0.29,0,*40
1499158850.04,7661,15.94,74116.3,4.41,-0.49,-0.65,0,*44
1499158851.24,7662,15.94,74124.3,4.39,-0.15,-0.33,0,*42
1499158852.43,7663,15.94,74120.0,4.35,-0.07,-0.29,0,*77
1499158853.63,7664,15.94,74118.5,4.33,-0.11,-0.27,0,*4F
1499158854.81,7665,15.94,74116.8,4.33,-0.45,-0.69,0,*45
1499158856.02,7666,15.94,74110.8,4.31,-0.11,-0.37,0,*4E
1499158857.25,7667,15.94,74112.5,4.31,-0.27,-0.49,0,*43
1499158858.47,7668,15.94,74112.0,4.31,0.13,-0.11,0,*6B
1499158859.66,7669,15.94,74110.8,4.29,-0.03,-0.23,0,*7E
1499158860.84,7670,15.94,74114.3,4.27,-0.15,-0.41,0,*4B
1499158862.0,7671,15.94,74108.3,4.27,-0.29,-0.53,0,*46
1499158863.18,7672,15.94,74108.3,4.27,-0.19,-0.41,0,*45
1499158864.39,7673,15.94,74114.8,4.25,-0.07,-0.27,0,*79
1499158865.56,7674,15.94,74114.5,4.23,-0.29,-0.57,0,*43
1499158866.73,7675,15.94,74112.0,4.23,-0.49,-0.81,0,*4F
1499158867.93,7676,15.94,74110.8,4.21,-0.37,-0.57,0,*4C
1499158869.12,7677,15.94,74118.8,4.21,-0.29,-0.57,0,*42
1499158870.3,7678,15.94,74116.3,4.19,-0.33,-0.41,0,*4A
1499158871.49,7679,15.94,74118.5,4.19,-0.03,-0.27,0,*78
1499158872.72,7680,15.94,74110.8,4.17,-0.11,-0.23,0,*47
1499158873.93,7681,15.94,74116.0,4.17,0.01,-0.27,0,*5E
1499158875.12,7682,15.94,74112.8,4.17,0.01,-0.15,0,*5C
1499158876.32,7683,15.94,74110.8,4.13,-0.03,-0.19,0,*7A
1499158877.52,7684,15.94,74110.3,4.13,-0.15,-0.37,0,*46
1499158878.74,7685,15.94,74110.3,4.13,-0.07,-0.27,0,*75
1499158879.93,7686,15.94,74112.3,4.13,-0.15,-0.29,0,*4B
1499158881.1,7687,15.94,74112.0,4.11,-0.07,-0.29,0,*7B
1499158882.28,7688,15.94,74110.3,4.11,-0.19,-0.41,0,*45
1499158883.5,7689,15.94,74114.3,4.09,-0.23,-0.29,0,*4A
1499158884.7,7690,15.94,74114.5,4.07,-0.23,-0.45,0,*46
1499158885.9,7691,15.94,74114.0,4.05,0.09,-0.15,0,*55
1499158887.12,7692,15.94,74112.3,4.07,0.51,0.21,0,*43
1499158888.35,7693,15.94,74114.5,4.05,0.51,0.37,0,*47
1499158889.56,7694,15.94,74116.3,4.07,0.51,0.25,0,*41
1499158890.78,7695,15.94,74118.8,4.07,0.51,0.29,0,*4C
1499158891.99,7696,15.94,74112.5,4.07,0.75,0.59,0,*4E
1499158893.2,7697,15.94,74114.5,4.07,0.71,0.51,0,*43
1499158894.44,7698,15.94,74118.5,4.05,0.71,0.51,0,*4E
1499158895.65,7699,15.94,74112.5,4.07,0.63,0.47,0,*49
1499158896.86,7700,15.94,74116.8,4.07,0.51,0.41,0,*4F
1499158898.08,7701,15.94,74118.3,4.07,0.87,0.63,0,*45
1499158899.29,7702,15.94,74118.8,4.07,0.83,0.63,0,*42
1499158900.52,7703,15.94,74118.5,4.07,1.33,1.21,0,*4E
1499158901.74,7704,15.94,74120.3,4.07,1.43,1.25,0,*4A
1499158902.97,7705,15.94,74120.8,4.11,1.37,1.17,0,*4E
1499158904.2,7706,15.94,74118.0,4.11,1.37,1.29,0,*40
1499158905.43,7707,15.94,74116.0,4.11,1.37,1.29,0,*41
1499158906.66,7708,15.94,74118.5,4.11,1.37,1.29,0,*4E
1499158907.88,7709,15.94,74118.5,4.11,1.59,1.51,0,*48
1499158909.12,7710,15.94,74118.0,4.13,1.85,1.63,0,*42
1499158910.37,7711,15.94,74118.0,4.17,1.59,1.55,0,*43
1499158911.59,7712,15.94,74120.5,4.17,1.79,1.59,0,*4E
1499158912.78,7713,15.94,74120.5,4.19,1.83,1.67,0,*49
1499158914.0,7714,15.94,74122.3,4.19,1.71,1.67,0,*43
1499158915.21,7715,15.94,74122.8,4.19,1.71,1.59,0,*4F
1499158916.43,7716,15.94,74122.5,4.19,1.71,1.67,0,*41
1499158917.65,7717,15.94,74120.8,4.21,1.75,1.63,0,*4B
1499158918.89,7718,15.94,74122.8,4.21,1.71,1.59,0,*49
1499158920.1,7719,15.94,74122.5,4.21,1.83,1.71,0,*4F
1499158921.32,7720,15.94,74122.0,4.23,1.71,1.59,0,*40
1499158922.54,7721,15.94,74122.5,4.23,1.37,1.13,0,*4D
1499158923.79,7722,15.94,74124.0,4.25,1.33,1.17,0,*48
1499158925.02,7723,15.94,74118.8,4.23,1.25,1.09,0,*47
1499158926.24,7724,15.94,74120.0,4.23,1.37,1.29,0,*41
1499158927.43,7725,15.94,74124.0,4.23,1.51,1.41,0,*4E
1499158928.64,7726,15.94,74122.8,4.25,1.51,1.41,0,*4B
1499158929.89,7727,15.94,74122.8,4.25,1.33,1.13,0,*49
1499158931.1,7728,15.94,74122.0,4.25,1.51,1.41,0,*45
1499158932.3,7729,15.94,74120.0,4.25,1.43,1.41,0,*47
1499158933.51,7730,15.94,74124.5,4.25,1.51,1.41,0,*4C
1499158934.69,7731,15.94,74122.8,4.27,1.51,1.41,0,*4F
1499158935.9,7732,15.94,74124.5,4.27,1.63,1.43,0,*4F
1499158937.12,7733,15.94,74122.3,4.27,1.55,1.43,0,*4B
1499158938.34,7734,15.94,74126.8,4.29,1.55,1.43,0,*42
1499158939.55,7735,15.94,74122.5,4.27,1.63,1.51,0,*4B
1499158940.76,7736,15.94,74126.5,4.27,1.59,1.47,0,*46
1499158941.97,7737,15.94,74124.3,4.27,1.63,1.43,0,*4A
1499158943.19,7738,15.94,74124.5,4.27,1.43,1.33,0,*40
1499158944.38,7739,15.94,74124.0,4.27,1.41,1.29,0,*48
1499158945.57,7740,15.94,74124.5,4.27,1.41,1.33,0,*4D
1499158946.78,7741,15.94,74124.0,4.27,1.43,1.33,0,*4E
1499158948.01,7742,15.94,74122.8,4.29,1.25,1.17,0,*45
1499158949.2,7743,15.94,74126.8,4.27,1.41,1.33,0,*4E
1499158950.42,7744,15.94,74120.3,4.29,1.47,1.43,0,*46
1499158951.63,7745,15.94,74126.3,4.29,1.47,1.43,0,*47
1499158952.85,7746,15.94,74126.5,4.29,1.47,1.43,0,*44
1499158954.03,7747,15.94,74124.3,4.27,1.51,1.41,0,*4E
1499158955.25,7748,15.94,74130.3,4.29,1.47,1.43,0,*4A
1499158956.47,7749,15.94,74124.0,4.29,1.55,1.43,0,*48
1499158957.7,7750,15.94,74126.5,4.29,1.43,1.33,0,*40
1499158958.92,7751,15.94,74126.5,4.29,1.43,1.33,0,*41
1499158960.14,7752,15.94,74124.5,4.29,1.43,1.37,0,*46
1499158961.38,7753,15.94,74126.5,4.29,1.33,1.09,0,*4D
1499158962.61,7754,15.94,74128.5,4.29,1.25,1.09,0,*4D
1499158963.83,7755,15.94,74126.8,4.29,1.21,0.95,0,*7C
1499158965.06,7756,15.94,74126.8,4.29,1.09,0.87,0,*76
1499158966.28,7757,15.94,74126.5,4.29,0.95,0.75,0,*4E
1499158967.51,7758,15.94,74124.8,4.29,1.09,1.09,0,*4F
1499158968.73,7759,15.94,74126.0,4.27,1.33,1.29,0,*4B
1499158969.92,7760,15.94,74126.5,4.27,1.41,1.29,0,*44
1499158971.12,7761,15.94,74124.3,4.29,1.21,0.97,0,*79
1499158972.34,7762,15.94,74120.0,4.29,1.09,0.95,0,*72
1499158973.54,7763,15.94,74120.3,4.27,1.17,1.05,0,*4A
1499158974.74,7764,15.94,74126.8,4.27,0.95,0.83,0,*49
1499158975.98,7765,15.94,74124.8,4.29,1.21,1.09,0,*4B
1499158977.17,7766,15.94,74122.3,4.27,1.41,1.17,0,*4F
1499158978.38,7767,15.94,74124.8,4.25,1.41,1.29,0,*41
1499158979.57,7768,15.94,74126.5,4.27,1.41,1.33,0,*47
1499158980.76,7769,15.94,74128.8,4.27,1.41,1.29,0,*4D
1499158981.99,7770,15.94,74126.8,4.27,1.33,1.13,0,*49
1499158983.18,7771,15.94,74124.5,4.27,1.41,1.17,0,*49
1499158984.37,7772,15.94,74124.8,4.27,1.01,0.83,0,*72
1499158985.59,7773,15.94,74124.0,4.25,1.41,1.33,0,*4F
1499158986.79,7774,15.94,74124.0,4.25,1.43,1.41,0,*4F
1499158988.04,7775,15.94,74122.8,4.25,1.33,1.13,0,*4E
1499158989.24,7776,15.94,74120.5,4.23,1.13,0.97,0,*74
1499158990.45,7777,15.94,74122.5,4.25,1.41,1.29,0,*40
1499158991.67,7778,15.94,74126.0,4.25,1.41,1.17,0,*42
1499158992.89,7779,15.94,74118.8,4.25,1.41,1.33,0,*45
1499158994.13,7780,15.94,74122.8,4.25,1.21,0.95,0,*78
1499158995.32,7781,15.94,74124.3,4.25,1.41,1.41,0,*47
1499158996.53,7782,15.94,74124.8,4.25,1.41,1.17,0,*47
1499158997.75,7783,15.94,74120.5,4.25,1.41,1.29,0,*4B
1499158998.97,7784,15.94,74120.5,4.25,1.41,1.33,0,*47
1499159000.16,7785,15.94,74124.0,4.23,1.17,1.01,0,*42
1499159001.38,7786,15.94,74128.5,4.25,1.05,0.79,0,*7A
1499159002.63,7787,15.94,74124.0,4.25,1.33,1.13,0,*43
1499159003.84,7788,15.94,74120.5,4.25,1.41,1.17,0,*4D
1499159005.05,7789,15.94,74122.0,4.25,1.51,1.41,0,*4E
1499159006.26,7790,15.94,74120.5,4.27,1.59,1.43,0,*4E
1499159007.47,7791,15.94,74122.0,4.27,1.43,1.33,0,*43
1499159008.66,7792,15.94,74120.5,4.27,1.41,1.29,0,*49
1499159009.84,7793,15.94,74124.0,4.27,1.51,1.41,0,*47
1499159011.03,7794,15.94,74126.0,4.27,1.51,1.41,0,*40
1499159012.21,7795,15.94,74126.3,4.27,1.41,1.29,0,*4E
1499159013.41,7796,15.94,74124.3,4.29,1.55,1.41,0,*48
1499159014.63,7797,15.94,74122.0,4.27,1.33,1.17,0,*44
1499159015.83,7798,15.94,74126.5,4.27,1.41,1.33,0,*48
1499159017.05,7799,15.94,74120.0,4.29,1.37,1.43,0,*41
1499159018.25,7800,15.94,74118.8,4.27,1.41,1.33,0,*46
1499159019.45,7801,15.94,74120.3,4.27,0.95,0.83,0,*45
1499159020.65,7802,15.94,74114.8,4.27,1.17,1.01,0,*46
1499159021.84,7803,15.94,74118.8,4.27,1.41,1.17,0,*43
1499159022.99,7804,15.94,74120.5,4.27,1.41,1.41,0,*47
1499159024.22,7805,15.94,74120.3,4.27,1.33,1.13,0,*44
1499159025.41,7806,15.94,74122.5,4.27,1.41,1.29,0,*4B
1499159026.6,7807,15.94,74118.0,4.27,1.41,1.13,0,*43
1499159027.79,7808,15.94,74118.5,4.27,1.21,1.05,0,*4D
1499159029.04,7809,15.94,74118.0,4.25,1.29,1.13,0,*41
1499159030.29,7810,15.94,74114.3,4.25,1.33,1.17,0,*46
1499159031.48,7811,15.94,74118.3,4.25,1.41,1.41,0,*41
1499159032.7,7812,15.94,74120.5,4.25,1.41,1.33,0,*47
1499159033.95,7813,15.94,74124.8,4.25,1.33,1.17,0,*45
1499159035.2,7814,15.94,74128.0,4.25,1.33,1.29,0,*4F
1499159036.41,7815,15.94,74124.0,4.25,1.05,0.83,0,*7A
1499159037.65,7816,15.94,74120.3,4.25,0.79,0.67,0,*49
1499159038.84,7817,15.94,74116.8,4.27,1.01,0.83,0,*7E
1499159040.03,7818,15.94,74122.5,4.27,1.05,0.91,0,*76
1499159041.28,7819,15.94,74122.5,4.25,1.29,1.17,0,*44
1499159042.49,7820,15.94,74122.3,4.25,1.51,1.41,0,*42
1499159043.71,7821,15.94,74122.5,4.25,1.21,1.05,0,*44
1499159044.96,7822,15.94,74124.3,4.25,1.55,1.51,0,*45
1499159046.21,7823,15.94,74126.3,4.25,1.29,1.17,0,*4D
1499159047.45,7824,15.94,74124.0,4.25,1.51,1.33,0,*43
1499159048.66,7825,15.94,74128.0,4.27,1.13,0.95,0,*7B
1499159049.86,7826,15.94,74124.5,4.27,1.17,1.05,0,*44
1499159051.06,7827,15.94,74126.5,4.27,1.21,1.05,0,*40
1499159052.28,7828,15.94,74124.0,4.27,1.29,1.17,0,*44
1499159053.5,7829,15.94,74128.8,4.25,1.41,1.33,0,*4F
1499159054.73,7830,15.94,74126.3,4.25,1.21,1.05,0,*44
1499159055.98,7831,15.94,74122.0,4.25,1.29,1.13,0,*4A
1499159057.18,7832,15.94,74124.8,4.25,1.43,1.41,0,*42
1499159058.41,7833,15.94,74130.3,4.27,1.33,1.17,0,*45
1499159059.62,7834,15.94,74126.3,4.27,1.13,0.95,0,*7B
1499159060.81,7835,15.94,74128.3,4.27,1.41,1.17,0,*46
1499159062.03,7836,15.94,74126.8,4.27,1.63,1.55,0,*43
1499159063.25,7837,15.94,74126.3,4.27,1.33,1.13,0,*45
1499159064.43,7838,15.94,74128.5,4.27,1.51,1.41,0,*49
1499159065.67,7839,15.94,74124.0,4.25,1.63,1.43,0,*49
1499159066.91,7840,15.94,74124.8,4.25,1.63,1.43,0,*47
1499159068.14,7841,15.94,74124.8,4.29,1.55,1.33,0,*48
1499159069.36,7842,15.94,74126.3,4.29,1.71,1.59,0,*41
1499159070.56,7843,15.94,74128.8,4.27,1.67,1.43,0,*42
1499159071.78,7844,15.94,74128.5,4.29,1.59,1.47,0,*42
1499159072.98,7845,15.94,74126.5,4.29,1.79,1.59,0,*4E
1499159074.2,7846,15.94,74128.3,4.31,1.97,1.75,0,*4A
1499159075.42,7847,15.94,74128.8,4.31,1.59,1.41,0,*4E
1499159076.64,7848,15.94,74126.5,4.35,1.79,1.67,0,*43
1499159077.86,7849,15.94,74132.0,4.33,2.05,1.93,0,*47
1499159079.08,7850,15.94,74128.8,4.33,1.71,1.59,0,*49
1499159080.3,7851,15.94,74132.3,4.33,1.09,0.79,0,*74
1499159081.53,7852,15.94,74130.3,4.33,1.25,0.91,0,*7F
1499159082.75,7853,15.94,74132.8,4.33,1.09,0.87,0,*77
1499159083.97,7854,15.94,74132.0,4.33,0.75,0.47,0,*46
1499159085.19,7855,15.94,74128.3,4.33,0.79,0.51,0,*4C
1499159086.42,7856,15.94,74130.5,4.31,0.75,0.51,0,*41
1499159087.65,7857,15.94,74130.3,4.31,0.97,0.75,0,*4A
1499159088.88,7858,15.94,74128.3,4.33,1.29,1.13,0,*42
1499159090.08,7859,15.94,74128.8,4.33,1.13,0.97,0,*77
1499159091.31,7860,15.94,74132.8,4.33,1.13,0.79,0,*7D
1499159092.52,7861,15.94,74130.0,4.33,0.87,0.67,0,*4F
1499159093.76,7862,15.94,74128.8,4.31,0.75,0.47,0,*41
1499159094.97,7863,15.94,74130.8,4.33,0.79,0.67,0,*4C
1499159096.19,7864,15.94,74132.8,4.33,0.79,0.55,0,*4A
1499159097.42,7865,15.94,74128.5,4.33,1.13,0.91,0,*7E
1499159098.6,7866,15.94,74130.8,4.33,1.83,1.75,0,*4F
1499159099.82,7867,15.94,74134.5,4.33,1.51,1.51,0,*47
1499159101.02,7868,15.94,74132.8,4.39,1.79,1.79,0,*42
1499159102.25,7869,15.94,74128.5,4.39,1.97,1.89,0,*4C
1499159103.45,7870,15.94,74128.5,4.41,1.89,1.79,0,*4B
1499159104.66,7871,15.94,74132.0,4.41,1.89,1.89,0,*45
1499159105.91,7872,15.94,74132.3,4.43,1.97,1.85,0,*47
1499159107.13,7873,15.94,74128.8,4.45,1.85,1.71,0,*48
1499159108.38,7874,15.94,74128.8,4.47,1.85,1.85,0,*46
1499159109.63,7875,15.94,74128.0,4.47,2.13,2.13,0,*47
1499159110.88,7876,15.94,74132.0,4.47,2.25,2.21,0,*40
1499159112.1,7877,15.94,74130.3,4.49,2.21,2.13,0,*4A
1499159113.35,7878,15.94,74130.0,4.51,2.25,2.17,0,*4C
1499159114.59,7879,15.94,74128.8,4.51,2.01,2.05,0,*48
1499159115.79,7880,15.94,74128.5,4.49,1.85,1.79,0,*40
1499159117.02,7881,15.94,74134.0,4.53,1.33,1.29,0,*42
1499159118.27,7882,15.94,74132.0,4.55,1.85,1.89,0,*40
1499159119.51,7883,15.94,74130.5,4.55,1.71,1.71,0,*4D
1499159120.73,7884,15.94,74130.8,4.57,1.85,1.97,0,*4B
1499159121.91,7885,15.94,74130.8,4.57,1.79,1.79,0,*49
1499159123.13,7886,15.94,74130.0,4.61,1.63,1.51,0,*4E
1499159124.35,7887,15.94,74130.5,4.61,1.63,1.63,0,*4E
1499159125.58,7888,15.94,74132.0,4.61,1.29,1.25,0,*4D
1499159126.8,7889,15.94,74130.5,4.61,1.51,1.47,0,*47
1499159128.0,7890,15.94,74134.0,4.61,1.79,1.85,0,*4B
1499159129.18,7891,15.94,74132.5,4.61,1.75,1.79,0,*45
1499159130.4,7892,15.94,74128.8,4.61,1.97,1.97,0,*4A
1499159131.62,7893,15.94,74134.8,4.65,2.05,2.13,0,*48
1499159132.82,7894,15.94,74132.3,4.63,1.79,1.83,0,*4B
1499159134.04,7895,15.94,74134.3,4.65,1.55,1.67,0,*48
1499159135.25,7896,15.94,74128.8,4.65,1.59,1.71,0,*40
1499159136.45,7897,15.94,74130.5,4.65,1.71,1.79,0,*43
1499159137.67,7898,15.94,74130.0,4.65,1.93,2.05,0,*48
1499159138.86,7899,15.94,74128.8,4.69,1.67,1.79,0,*46
1499159140.08,7900,15.94,74132.5,4.69,1.59,1.63,0,*41
1499159141.33,7901,15.94,74130.3,4.67,1.37,1.47,0,*40
1499159142.56,7902,15.94,74134.0,4.69,1.29,1.29,0,*4A
1499159143.78,7903,15.94,74134.0,4.69,1.47,1.55,0,*48
1499159144.99,7904,15.94,74128.3,4.69,1.51,1.59,0,*44
1499159146.21,7905,15.94,74132.0,4.69,1.25,1.25,0,*4D
1499159147.43,7906,15.94,74132.0,4.69,1.25,1.29,0,*42
1499159148.65,7907,15.94,74136.0,4.69,0.91,0.87,0,*48
1499159149.89,7908,16.0,74136.0,4.67,0.51,0.59,0,*46
1499159151.11,7909,15.94,74132.0,4.69,0.79,0.87,0,*40
1499159152.35,7910,15.94,74132.8,4.67,0.87,0.91,0,*40
1499159153.55,7911,15.94,74132.5,4.67,1.01,0.97,0,*78
1499159154.74,7912,15.94,74132.0,4.67,1.01,0.97,0,*7B
1499159155.98,7913,15.94,74134.0,4.67,0.83,0.83,0,*44
1499159157.22,7914,15.94,74132.3,4.63,0.83,0.83,0,*47
1499159158.46,7915,15.94,74136.8,4.63,0.87,0.95,0,*45
1499159159.69,7916,15.94,74132.8,4.63,0.95,0.95,0,*45
1499159160.9,7917,15.94,74136.3,4.65,0.95,0.87,0,*41
1499159162.13,7918,15.94,74138.3,4.63,0.71,0.67,0,*4C
1499159163.35,7919,15.94,74134.3,4.63,0.55,0.43,0,*4D
1499159164.59,7920,15.94,74138.0,4.63,0.95,0.87,0,*43
1499159165.81,7921,15.94,74134.0,4.57,1.55,1.47,0,*45
1499159167.0,7922,15.94,74132.3,4.61,1.47,1.41,0,*46
1499159168.23,7923,15.94,74134.8,4.61,1.37,1.25,0,*42
1499159169.45,7924,15.94,74132.5,4.61,1.51,1.47,0,*41
1499159170.67,7925,15.94,74134.5,4.63,1.71,1.79,0,*4D
1499159171.87,7926,15.94,74132.0,4.63,1.79,1.79,0,*46
1499159173.06,7927,15.94,74128.3,4.65,1.79,1.71,0,*49
1499159174.31,7928,15.94,74134.5,4.63,1.67,1.55,0,*49
1499159175.52,7929,15.94,74132.3,4.65,1.67,1.67,0,*4F
1499159176.73,7930,15.94,74134.3,4.65,1.59,1.43,0,*4C
1499159177.92,7931,15.94,74132.5,4.65,1.41,1.29,0,*48
1499159179.14,7932,15.94,74130.8,4.65,1.43,1.29,0,*49
1499159180.36,7933,15.94,74132.3,4.65,1.55,1.33,0,*44
1499159181.61,7934,15.94,74134.3,4.63,1.51,1.33,0,*41
1499159182.81,7935,15.94,74132.8,4.63,1.79,1.79,0,*44
1499159184.03,7936,15.94,74134.0,4.65,2.13,2.01,0,*42
1499159185.25,7937,15.94,74134.5,4.65,2.17,2.05,0,*43
1499159186.47,7938,15.94,74130.8,4.69,2.39,2.21,0,*4A
1499159187.69,7939,15.94,74130.3,4.67,2.39,2.27,0,*43
1499159188.89,7940,15.94,74130.5,4.69,2.47,2.35,0,*49
1499159190.09,7941,15.94,74128.8,4.69,2.31,2.13,0,*4D
1499159191.31,7942,15.94,74130.5,4.73,2.25,2.01,0,*43
1499159192.54,7943,15.94,74128.5,4.73,2.17,2.05,0,*47
1499159193.75,7944,15.94,74128.8,4.73,2.01,1.93,0,*4B
1499159194.97,7945,15.94,74128.8,4.73,1.93,1.93,0,*42
1499159196.2,7946,16.0,74128.5,4.73,2.17,2.17,0,*41
1499159197.43,7947,15.94,74124.0,4.77,2.59,2.51,0,*4C
1499159198.69,7948,15.94,74130.3,4.75,2.51,2.51,0,*49
1499159199.91,7949,15.94,74124.0,4.77,2.59,2.55,0,*46
1499159201.11,7950,15.94,74122.8,4.77,2.39,2.31,0,*4A
1499159202.27,7951,15.94,74126.5,4.81,2.35,2.31,0,*4E
1499159203.49,7952,15.94,74124.3,4.81,2.21,2.13,0,*48
1499159204.71,7953,15.94,74124.0,4.81,2.25,2.21,0,*4C
1499159205.93,7954,15.94,74122.0,4.87,2.39,2.35,0,*45
1499159207.15,7955,15.94,74124.0,4.87,2.39,2.35,0,*44
1499159208.4,7956,15.94,74122.5,4.87,2.05,2.05,0,*4B
1499159209.64,7957,15.94,74122.0,4.87,2.05,2.01,0,*4E
1499159210.86,7958,15.94,74120.3,4.89,2.21,2.17,0,*4E
1499159212.08,7959,15.94,74118.8,4.89,2.09,2.17,0,*45
1499159213.27,7960,15.94,74120.5,4.89,2.39,2.31,0,*48
1499159214.52,7961,15.94,74120.5,4.91,2.13,2.09,0,*43
1499159215.71,7962,15.94,74122.5,4.89,1.79,1.67,0,*4D
1499159216.92,7963,15.94,74122.8,4.91,1.47,1.41,0,*4C
1499159218.13,7964,15.94,74122.3,4.89,1.43,1.37,0,*47
1499159219.39,7965,15.94,74122.5,4.91,1.29,1.17,0,*41
1499159220.6,7966,15.94,74120.3,4.89,1.25,1.13,0,*43
1499159221.83,7967,15.94,74122.0,4.89,1.37,1.33,0,*43
1499159223.05,7968,15.94,74120.3,4.89,1.25,1.25,0,*48
1499159224.27,7969,15.94,74120.0,4.89,1.37,1.25,0,*4A
1499159225.52,7970,15.94,74118.0,4.91,1.29,1.13,0,*41
1499159226.78,7971,15.94,74118.5,4.91,1.13,0.91,0,*72
1499159227.98,7972,15.94,74120.5,4.89,1.13,1.05,0,*44
1499159229.17,7973,15.94,74118.3,4.89,1.13,0.97,0,*7F
1499159230.39,7974,15.94,74118.5,4.89,1.47,1.37,0,*42
1499159231.64,7975,15.94,74114.3,4.91,1.13,0.91,0,*76
1499159232.83,7976,15.94,74112.8,4.89,0.97,0.71,0,*4F
1499159234.03,7977,15.94,74110.8,4.89,0.63,0.51,0,*47
1499159235.21,7978,15.94,74114.5,4.85,0.43,0.33,0,*42
1499159236.45,7979,15.94,74110.5,4.87,0.55,0.47,0,*45
1499159237.66,7980,15.94,74112.5,4.85,0.29,0.21,0,*4A
1499159238.87,7981,15.94,74118.5,4.85,0.67,0.55,0,*42
1499159240.07,7982,15.94,74112.3,4.85,1.01,0.91,0,*78
1499159241.29,7983,15.94,74114.3,4.85,1.09,1.17,0,*4E
1499159242.52,7984,15.94,74112.8,4.81,1.29,1.37,0,*4D
1499159243.78,7985,15.94,74118.5,4.87,1.29,1.21,0,*4D
1499159245.0,7986,15.94,74116.5,4.87,1.01,1.09,0,*4E
1499159246.21,7987,15.94,74118.3,4.85,0.95,0.95,0,*45
1499159247.42,7988,15.94,74118.0,4.81,0.79,0.87,0,*4F
1499159248.65,7989,15.94,74118.8,4.81,1.25,1.29,0,*43
1499159249.87,7990,15.94,74116.8,4.81,1.25,1.17,0,*46
1499159251.08,7991,15.94,74120.8,4.81,0.79,0.79,0,*46
1499159252.27,7992,15.94,74118.0,4.81,0.97,0.87,0,*44
1499159253.5,7993,15.94,74120.3,4.81,1.17,1.13,0,*40
1499159254.71,7994,15.94,74122.3,4.81,0.87,0.63,0,*49
1499159255.92,7995,15.94,74124.0,4.81,0.41,0.13,0,*45
1499159257.12,7996,15.94,74122.0,4.79,0.43,0.25,0,*46
1499159258.37,7997,15.94,74124.3,4.79,0.91,0.75,0,*4D
1499159259.62,7998,16.0,74130.8,4.79,1.17,0.91,0,*77
1499159260.84,7999,15.94,74126.3,4.79,1.25,0.97,0,*71
1499159262.07,8000,15.94,74128.0,4.81,1.17,0.91,0,*77
1499159263.3,8001,15.94,74128.8,4.79,1.29,1.01,0,*44
1499159264.5,8002,15.94,74128.5,4.81,1.37,1.01,0,*4F
1499159265.72,8003,15.94,74132.8,4.79,0.87,0.43,0,*44
1499159266.96,8004,16.0,74134.8,4.79,0.87,0.63,0,*41
1499159268.18,8005,15.94,74130.5,4.79,1.17,0.97,0,*73
1499159269.37,8006,15.94,74134.3,4.85,1.41,1.29,0,*44
1499159270.57,8007,15.94,74134.8,4.81,1.17,1.05,0,*4C
1499159271.79,8008,15.94,74134.3,4.81,0.79,0.63,0,*4B
1499159273.0,8009,15.94,74130.5,4.81,0.79,0.63,0,*4A
1499159274.21,8010,15.94,74130.0,4.81,0.87,0.67,0,*47
1499159275.42,8011,15.94,74130.8,4.81,0.75,0.51,0,*4E
1499159276.65,8012,15.94,74122.8,4.79,0.63,0.51,0,*4D
1499159277.86,8013,15.94,74124.3,4.81,0.63,0.51,0,*4B
1499159279.08,8014,15.94,74124.3,4.79,0.97,0.75,0,*46
1499159280.3,8015,15.94,74122.8,4.79,0.97,0.79,0,*4B
1499159281.54,8016,15.94,74118.0,4.79,0.51,0.29,0,*47
1499159282.75,8017,15.94,74120.5,4.79,0.55,0.43,0,*4E
1499159283.96,8018,15.94,74118.0,4.79,0.63,0.43,0,*44
1499159285.17,8019,15.94,74112.8,4.77,0.75,0.51,0,*4F
1499159286.38,8020,15.94,74116.5,4.75,0.67,0.43,0,*47
1499159287.62,8021,15.94,74118.5,4.75,0.71,0.55,0,*46
1499159288.81,8022,15.94,74122.0,4.75,1.05,0.97,0,*79
1499159290.07,8023,15.94,74118.0,4.75,1.21,1.21,0,*42
1499159291.29,8024,15.94,74120.8,4.77,1.59,1.55,0,*4B
1499159292.51,8025,15.94,74122.8,4.77,1.43,1.33,0,*41
1499159293.75,8026,15.94,74122.3,4.77,1.37,1.33,0,*41
1499159295.0,8027,15.94,74124.3,4.79,1.17,1.17,0,*4A
1499159296.25,8028,15.94,74122.8,4.79,1.25,1.13,0,*40
1499159297.49,8029,15.94,74124.5,4.79,0.87,0.75,0,*49
1499159298.71,8030,16.0,74126.3,4.77,0.71,0.59,0,*48
1499159299.92,8031,16.0,74128.0,4.77,0.83,0.71,0,*4E
1499159301.16,8032,15.94,74122.0,4.75,0.83,0.59,0,*45
1499159302.4,8033,15.94,74126.0,4.75,0.71,0.47,0,*46
1499159303.61,8034,16.0,74130.3,4.75,0.71,0.43,0,*45
1499159304.83,8035,15.94,74126.5,4.75,0.59,0.43,0,*4E
1499159306.04,8036,15.94,74124.3,4.73,0.83,0.55,0,*4B
1499159307.22,8037,16.0,74130.0,4.73,0.67,0.43,0,*47
1499159308.44,8038,15.94,74130.8,4.73,0.79,0.59,0,*4C
1499159309.63,8039,15.94,74124.5,4.73,1.21,0.97,0,*73
1499159310.86,8040,15.94,74124.5,4.73,1.21,0.83,0,*78
1499159312.07,8041,15.94,74128.3,4.73,0.59,0.37,0,*48
1499159313.25,8042,16.0,74128.3,4.73,0.67,0.43,0,*45
1499159314.46,8043,15.94,74124.8,4.73,0.83,0.59,0,*45
1499159315.66,8044,15.94,74124.8,4.69,0.75,0.67,0,*4D
1499159316.88,8045,15.94,74130.0,4.69,0.95,0.87,0,*4C
1499159318.1,8046,15.94,74128.0,4.67,1.01,0.83,0,*79
1499159319.32,8047,15.94,74130.0,4.69,1.25,1.13,0,*48
1499159320.55,8048,15.94,74128.0,4.69,1.37,1.17,0,*40
1499159321.8,8049,15.94,74130.8,4.67,1.33,1.13,0,*4F
1499159323.03,8050,15.94,74128.0,4.69,1.37,1.17,0,*49
1499159324.25,8051,15.94,74130.8,4.69,1.51,1.37,0,*4A
1499159325.46,8052,15.94,74128.8,4.69,1.17,1.05,0,*4A
1499159326.65,8053,16.0,74128.0,4.69,1.41,1.17,0,*4B
1499159327.87,8054,15.94,74126.5,4.69,0.91,0.63,0,*42
1499159329.07,8055,15.94,74128.3,4.69,0.67,0.41,0,*4A
1499159330.32,8056,15.94,74124.0,4.67,1.09,0.83,0,*70
1499159331.55,8057,16.0,74128.8,4.69,1.29,1.13,0,*45
1499159332.77,8058,15.94,74126.8,4.67,1.01,0.87,0,*72
1499159333.99,8059,15.94,74126.3,4.67,0.97,0.75,0,*40
1499159335.17,8060,15.94,74126.8,4.69,0.67,0.43,0,*4E
1499159336.4,8061,15.94,74124.3,4.67,0.41,0.25,0,*45
1499159337.64,8062,15.94,74126.5,4.67,0.47,0.29,0,*4C
1499159338.85,8063,15.94,74126.0,4.65,0.47,0.21,0,*47